This is the latest recevied weather packets stored in our database for station/object KM4KBD. If no packets are shown the sender has not sent any weather packets the latest 1 day(s).
| Time | Temp. | Humidity | Pressure | Rain* | Wind** | Luminosity | Snow |
|---|---|---|---|---|---|---|---|
| 1836274645 | 19.44° C | 76% | 1024.2 hPa | 0 mm | 0 m/s | 0 W/m² | - |
| 1836274498 | 18.89° C | 78% | 1024.4 hPa | 0 mm | 0 m/s | 0 W/m² | - |
| 1836274343 | 19.44° C | 75% | 1024.5 hPa | 0 mm | 0 m/s | 0 W/m² | - |
| 1836274196 | 19.44° C | 77% | 1024.3 hPa | 0 mm | 0 m/s | 0 W/m² | - |
| 1836274041 | 20° C | 74% | 1024.3 hPa | 0 mm | 0 m/s | 0 W/m² | - |
| 1778047105 | 15.56° C | 90% | 1012.7 hPa | 6.1 mm | 1.79 m/s, 217° | 0 W/m² | - |
| 1778046802 | 16.11° C | 86% | 1012.8 hPa | 1.27 mm | 3.13 m/s, 241° | 0 W/m² | - |
| 1778046500 | 16.67° C | 82% | 1012.9 hPa | 0 mm | 3.58 m/s, 232° | 0 W/m² | - |
| 1778046196 | 16.67° C | 81% | 1012.4 hPa | 0 mm | 3.13 m/s, 237° | 0 W/m² | - |
| 1778045892 | 16.67° C | 80% | 1012.5 hPa | 0 mm | 2.68 m/s, 224° | 0 W/m² | - |
| 1778045592 | 16.67° C | 80% | 1012.7 hPa | 0 mm | 3.13 m/s, 225° | 0 W/m² | - |
| 1778045289 | 16.67° C | 80% | 1012.8 hPa | 0 mm | 2.68 m/s, 198° | 0 W/m² | - |
| 1778044988 | 16.67° C | 79% | 1013 hPa | 0 mm | 3.13 m/s, 223° | 0 W/m² | - |
| 1778044685 | 16.67° C | 79% | 1013.2 hPa | 0 mm | 3.58 m/s, 202° | 0 W/m² | - |
| 1778044381 | 16.67° C | 79% | 1012.8 hPa | 0 mm | 4.47 m/s, 205° | 0 W/m² | - |
| 1778044079 | 16.67° C | 79% | 1013.2 hPa | 0 mm | 2.24 m/s, 208° | 0 W/m² | - |
| 1778043776 | 16.67° C | 80% | 1013.2 hPa | 0 mm | 3.13 m/s, 154° | 0 W/m² | - |
| 1778043472 | 16.67° C | 79% | 1013.1 hPa | 0 mm | 3.58 m/s, 198° | 0 W/m² | - |
| 1778043169 | 16.67° C | 80% | 1013.2 hPa | 0 mm | 3.13 m/s, 248° | 0 W/m² | - |
| 1778042866 | 16.67° C | 80% | 1013.2 hPa | 0 mm | 3.58 m/s, 215° | 0 W/m² | - |
| 1778042564 | 16.11° C | 81% | 1013.1 hPa | 0 mm | 3.13 m/s, 200° | 0 W/m² | - |
| 1778042261 | 16.11° C | 81% | 1013.2 hPa | 0 mm | 4.02 m/s, 237° | 0 W/m² | - |
| 1778041958 | 16.11° C | 82% | 1013.2 hPa | 0 mm | 3.13 m/s, 225° | 0 W/m² | - |
| 1778041657 | 15.56° C | 83% | 1013 hPa | 0 mm | 1.34 m/s, 232° | 0 W/m² | - |
| 1778041355 | 15.56° C | 83% | 1013.5 hPa | 0 mm | 2.68 m/s, 242° | 0 W/m² | - |
* Rain latest hour (hover to see other rain measurements)
** Current wind speed in m/s (hover to see current wind gust speed)